Theta_e
291 291 291 291 291 292 292 292 294 295 295 296 296 296 295 293 291 290 292 292 290 291
288 288 289 290 290 291 291 292 293 292 292 293 294 293 294 292 289 289 290 291 290 291
287 288 288 288 287 288 289 289 289 290 290 291 291 291 291 292 289 287 289 290 289 289
285 286 286 285 284 285 285 287 288 289 289 288 289 289 288 288 289 287 288 288 288 288
284 284 284 283 283 283 283 285 286 287 287 287 287 287 286 287 289 288 288 287 287 287
282 283 283 282 281 281 282 282 283 284 285 285 285 285 286 287 287 288 288 287 286 287
280 282 283 282 280 280 281 280 281 282 283 284 284 285 285 286 286 287 287 287 287 287
281 281 281 281 279 279 280 281 280 281 281 282 284 284 284 285 286 286 286 286 287 287
281 281 281 281 280 279 279 278 278 279 280 280 282 284 287 287 285 285 285 285 286 286
282 281 281 281 280 278 278 277 276 277 277 278 280 284 286 287 285 285 285 285 285 285
281 280 280 280 279 278 277 276 275 275 276 276 278 282 284 285 283 284 285 285 285 285
279 278 278 278 278 278 277 275 274 274 274 274 275 280 281 282 281 282 283 285 285 285
274 271 271 274 276 277 276 274 274 273 273 273 272 277 279 280 280 279 281 283 284 285
269 268 268 268 269 270 271 271 270 270 270 271 272 273 277 279 279 279 279 281 282 284
Wind_Speed
9 5 5 7 7 6 6 5 5 6 6 7 7 8 7 7 7 8 11 16 10 11
6 6 7 7 6 6 8 9 11 9 9 8 8 8 9 7 7 8 10 14 11 11
4 5 6 6 7 9 9 10 10 11 8 8 7 8 8 9 7 8 8 9 12 11
5 6 6 5 6 8 8 10 11 11 10 8 8 8 8 8 8 10 11 10 11 14
6 5 5 5 6 7 8 10 10 10 11 9 8 8 8 10 11 12 13 12 13 14
7 6 6 6 6 7 7 9 10 8 9 10 9 8 8 9 11 12 14 14 13 16
7 7 8 7 7 7 7 8 9 10 9 9 9 9 9 10 11 13 13 14 15 15
7 7 8 8 8 8 9 9 9 10 10 10 8 7 9 9 11 12 14 14 15 16
10 12 13 11 10 9 10 8 8 11 10 11 8 15 21 17 11 12 13 14 16 16
13 14 15 15 13 12 12 8 12 12 11 13 12 23 23 21 12 12 14 17 15 13
15 15 16 16 17 15 12 12 11 12 12 13 13 25 26 24 14 13 15 17 19 17
14 15 16 18 20 18 15 14 12 12 14 13 17 25 27 24 14 14 16 15 17 17
16 17 18 20 21 19 15 15 13 15 14 16 19 27 30 27 13 15 13 14 15 23
17 16 17 20 18 17 15 14 14 16 16 18 19 23 33 33 18 14 12 11 11 11
Wind_Direction
360 357 344 343 339 319 312 309 314 311 265 229 237 240 238 229 219 213 226 230 213 219
345 348 342 339 336 334 330 329 320 310 300 276 243 231 239 246 232 223 223 227 227 225
321 333 341 342 339 336 330 326 319 309 294 283 269 251 233 239 236 233 229 226 229 221
329 345 345 338 331 323 320 322 321 314 304 293 275 265 251 243 237 233 237 233 227 234
342 334 328 324 319 317 313 313 306 307 307 298 284 269 256 251 250 245 238 230 234 235
318 317 313 303 306 300 299 300 302 296 297 303 300 280 262 256 256 248 245 239 229 236
298 298 297 283 288 283 279 285 292 296 291 286 288 292 283 268 264 259 249 246 242 234
280 276 283 274 268 272 281 281 281 286 290 292 283 276 285 277 270 269 267 258 250 243
284 292 291 282 268 267 272 258 273 283 282 284 286 289 293 289 284 270 263 261 259 258
273 274 276 283 277 271 274 272 283 281 285 285 283 288 290 288 279 274 268 265 257 253
280 272 270 271 269 269 272 271 272 279 279 279 281 286 286 287 280 272 264 263 263 253
301 293 286 279 277 272 272 269 269 275 280 281 280 282 285 285 278 270 266 261 259 255
332 334 329 322 306 284 268 267 273 280 280 284 285 287 284 283 272 265 263 265 259 252
315 317 311 306 304 313 310 297 289 284 284 284 282 284 285 280 271 258 259 259 262 257